Simultaneous Nadir Overpasses (SNOs) Predictions

Prediction of SNOs between NOAA-20 and METOP-B Satellite Orbit:

Table of predicted SNOs for the next 14.0 days since TLE Epoch: 12/14/2024
Index Date (NOAA-20) Time (NOAA-20) Lat,Lon (NOAA-20) SZA (NOAA-20 ) Date (METOP-B) Time (METOP-B) Lat,Lon (METOP-B) SZA (METOP-B ) Distance(km) Time Diff (sec)
1 12/22/2024 19:06:51 -74.34, 61.15 82.01 12/22/2024 19:07:57 -74.33, 64.20 82.17 91.48 66
2 12/22/2024 19:57:33 74.17,-131.10 97.80 12/22/2024 19:58:41 74.14,-128.96 97.66 65.02 68
3 12/22/2024 20:48:15 -74.05, 36.52 82.34 12/22/2024 20:49:26 -73.99, 38.01 82.48 46.01 71
4 12/22/2024 21:38:57 73.87,-155.74 97.47 12/22/2024 21:40:09 73.84,-155.02 97.40 22.67 72
5 12/22/2024 22:29:40 -73.80, 11.74 82.61 12/22/2024 22:30:53 -73.74, 12.08 82.70 12.18 73
6 12/22/2024 23:20:23 73.67, 179.36 97.25 12/22/2024 23:21:34 73.69, 179.29 97.26 2.96 71
7 12/23/2024 00:11:08 -73.70, -13.39 82.72 12/23/2024 00:12:16 -73.70, -13.37 82.74 0.82 68
8 12/23/2024 01:01:53 73.67, 153.98 97.25 12/23/2024 01:02:56 73.69, 153.95 97.26 2.60 63
9 12/23/2024 01:52:38 -73.70, -38.77 82.72 12/23/2024 01:53:38 -73.70, -38.71 82.74 1.72 60
10 12/23/2024 02:43:23 73.67, 128.61 97.25 12/23/2024 02:44:18 73.70, 128.62 97.26 2.68 55
11 12/23/2024 03:34:08 -73.70, -64.14 82.72 12/23/2024 03:35:00 -73.70, -64.05 82.74 2.76 52
12 12/23/2024 04:24:53 73.67, 103.24 97.25 12/23/2024 04:25:40 73.70, 103.28 97.27 3.14 47
13 12/23/2024 05:15:37 -73.65, -89.40 82.78 12/23/2024 05:16:23 -73.65, -89.50 82.78 3.42 46
14 12/23/2024 06:06:23 73.67, 77.87 97.25 12/23/2024 06:07:03 73.65, 77.82 97.22 2.78 40
15 12/23/2024 06:57:07 -73.65,-114.77 82.78 12/23/2024 06:57:45 -73.65,-114.84 82.78 2.42 38
16 12/23/2024 07:47:53 73.67, 52.49 97.25 12/23/2024 07:48:25 73.65, 52.48 97.22 2.21 32
17 12/23/2024 08:38:37 -73.65,-140.14 82.78 12/23/2024 08:39:07 -73.65,-140.18 82.78 1.52 30
18 12/23/2024 09:29:23 73.67, 27.12 97.25 12/23/2024 09:29:47 73.65, 27.14 97.22 2.09 24
19 12/23/2024 10:20:07 -73.65,-165.51 82.78 12/23/2024 10:20:29 -73.66,-165.52 82.78 1.07 22
20 12/23/2024 11:10:53 73.67, 1.75 97.24 12/23/2024 11:11:09 73.65, 1.80 97.22 2.49 16
21 12/23/2024 12:01:37 -73.65, 169.11 82.79 12/23/2024 12:01:51 -73.66, 169.14 82.78 1.53 14
22 12/23/2024 12:52:23 73.67, -23.63 97.24 12/23/2024 12:52:31 73.65, -23.54 97.22 3.21 8
23 12/23/2024 13:43:07 -73.64, 143.74 82.79 12/23/2024 13:43:13 -73.66, 143.80 82.78 2.42 6
24 12/23/2024 14:33:52 73.62, -48.88 97.19 12/23/2024 14:33:54 73.60, -48.99 97.18 3.59 2
25 12/23/2024 15:24:37 -73.64, 118.37 82.79 12/23/2024 15:24:35 -73.66, 118.46 82.78 3.42 2
26 12/23/2024 16:15:22 73.62, -74.26 97.18 12/23/2024 16:15:16 73.61, -74.33 97.18 2.53 6
27 12/23/2024 17:06:07 -73.64, 92.99 82.79 12/23/2024 17:05:58 -73.61, 93.01 82.82 3.52 9
28 12/23/2024 17:56:52 73.61, -99.63 97.18 12/23/2024 17:56:38 73.61, -99.67 97.18 1.50 14
29 12/23/2024 18:47:35 -73.59, 67.74 82.85 12/23/2024 18:47:19 -73.61, 67.67 82.82 3.15 16
30 12/23/2024 19:38:21 73.61,-125.00 97.18 12/23/2024 19:37:59 73.61,-125.01 97.18 0.66 22
31 12/23/2024 20:29:05 -73.59, 42.36 82.85 12/23/2024 20:28:41 -73.61, 42.33 82.82 2.75 24
32 12/23/2024 21:19:51 73.61,-150.38 97.18 12/23/2024 21:19:21 73.61,-150.35 97.18 0.98 30
33 12/23/2024 22:10:35 -73.59, 16.99 82.85 12/23/2024 22:10:03 -73.61, 16.99 82.82 2.75 32
34 12/23/2024 23:01:21 73.61,-175.75 97.18 12/23/2024 23:00:43 73.61,-175.69 97.18 1.95 38
35 12/23/2024 23:52:05 -73.59, -8.38 82.85 12/23/2024 23:51:25 -73.62, -8.35 82.82 3.15 40
36 12/24/2024 00:42:51 73.61, 158.88 97.18 12/24/2024 00:42:05 73.61, 158.97 97.18 2.99 46
37 12/24/2024 01:33:35 -73.59, -33.75 82.86 12/24/2024 01:32:48 -73.57, -33.80 82.86 2.79 47
38 12/24/2024 02:24:20 73.56, 133.62 97.12 12/24/2024 02:23:28 73.56, 133.52 97.14 3.18 52
39 12/24/2024 03:15:05 -73.59, -59.13 82.86 12/24/2024 03:14:10 -73.57, -59.14 82.86 2.14 55
40 12/24/2024 04:05:50 73.56, 108.25 97.12 12/24/2024 04:04:50 73.56, 108.18 97.14 2.16 60
41 12/24/2024 04:56:35 -73.59, -84.50 82.86 12/24/2024 04:55:32 -73.57, -84.48 82.86 1.93 63
42 12/24/2024 05:47:20 73.56, 82.87 97.12 12/24/2024 05:46:12 73.57, 82.84 97.14 1.23 68
43 12/24/2024 06:38:05 -73.59,-109.87 82.86 12/24/2024 06:36:54 -73.57,-109.82 82.86 2.28 71
44 12/24/2024 07:28:49 73.51, 57.61 97.06 12/24/2024 07:27:35 73.52, 57.39 97.09 7.27 74
45 12/24/2024 08:19:32 -73.44,-134.90 83.03 12/24/2024 08:18:19 -73.42,-135.50 83.00 18.94 73
46 12/24/2024 09:10:13 73.21, 32.92 96.73 12/24/2024 09:09:03 73.21, 31.38 96.82 49.46 70
47 12/24/2024 10:00:56 -73.14,-159.61 83.36 12/24/2024 09:59:46 -73.17,-161.39 83.22 57.50 70
48 12/24/2024 10:51:37 72.90, 8.20 96.40 12/24/2024 10:50:31 72.91, 5.39 96.56 91.71 66



Historial Predications of SNOs between NOAA-20 and METOP-B
